Theta_e
301 301 301 302 302 302 302 302 302 302 302 303 305 306 307 307 307 307 306 306 305 305 306 305 304 305 311 312 313 315 320 318 317 315 315 313 314 313 314 315 315 316 317 330 325
301 301 302 302 302 302 302 302 302 302 302 305 307 308 309 308 308 308 309 309 309 308 308 308 311 308 308 312 312 316 318 319 318 317 315 315 315 315 316 316 316 318 318 326 333
302 302 302 302 302 302 302 303 302 302 303 307 308 309 309 308 307 310 310 310 308 309 307 307 308 312 308 312 312 312 316 317 316 317 315 316 315 315 316 317 317 318 318 328 348
302 302 302 302 302 302 303 302 302 304 307 309 309 309 309 309 310 307 309 309 310 312 307 307 310 313 312 310 310 313 312 312 314 314 313 315 316 319 318 317 318 317 317 320 347
302 302 302 302 302 303 303 303 306 308 309 310 310 309 309 309 309 307 309 308 308 309 308 310 312 311 311 310 310 311 310 312 313 313 314 314 315 315 316 318 319 319 320 320 326
302 302 302 303 303 304 305 308 309 309 309 309 310 310 309 310 310 309 309 309 309 309 308 308 312 312 311 310 310 309 310 311 311 311 313 314 314 315 315 316 317 318 319 320 320
302 304 306 304 304 307 308 308 308 308 308 310 310 309 309 310 310 310 310 310 309 309 309 309 309 311 310 311 311 311 312 312 312 312 312 312 314 315 314 315 316 318 319 319 319
303 307 304 305 306 308 308 308 308 309 309 310 310 310 310 311 311 311 311 311 311 310 310 310 309 309 309 309 309 310 309 311 313 313 311 313 312 315 314 314 315 315 315 316 318
306 305 306 307 307 309 309 311 311 309 310 310 310 310 311 311 310 310 311 311 311 311 311 311 309 310 308 310 310 309 309 310 312 314 312 313 312 313 314 315 315 315 315 315 317
306 307 307 308 309 310 311 312 311 310 311 311 310 310 311 311 310 309 312 311 311 311 310 310 310 310 309 310 311 310 309 309 310 312 313 314 313 314 314 316 316 316 316 317 317
304 308 308 309 311 311 312 311 311 310 310 311 311 310 311 311 309 309 311 311 311 311 312 310 311 312 312 311 311 311 311 311 310 310 313 313 315 315 315 315 316 316 317 317 318
302 308 309 309 310 310 311 311 310 310 310 311 311 311 311 310 309 309 310 311 310 313 310 311 313 312 312 311 310 311 312 312 311 310 310 311 312 314 315 316 316 317 317 318 318
302 307 309 309 309 310 310 310 310 310 311 311 311 311 310 309 309 310 312 312 312 313 313 314 313 312 311 312 312 312 312 312 311 311 310 310 310 311 313 314 315 317 317 318 318
302 305 309 308 309 310 310 310 311 310 313 312 310 310 310 309 311 310 311 313 313 313 313 313 313 313 313 313 312 314 312 311 311 311 312 311 310 310 312 313 316 317 318 317 318
302 307 310 308 309 310 310 310 312 310 311 309 310 310 310 309 309 311 311 312 313 312 312 314 314 314 315 315 314 315 312 312 312 312 311 310 312 312 313 316 316 318 318 318 318
302 311 309 309 309 310 310 311 312 311 309 310 310 310 311 310 310 311 311 312 312 313 312 313 312 313 314 314 313 313 313 312 311 311 311 310 311 311 313 316 318 317 319 318 317
302 309 309 308 309 310 310 310 312 311 309 311 311 310 310 310 311 311 312 312 313 314 315 313 314 313 314 314 312 313 314 315 315 314 312 310 310 311 315 317 318 319 319 318 317
303 309 308 308 308 309 310 310 309 309 310 310 310 310 311 311 311 311 312 314 312 313 316 315 315 314 314 314 315 315 313 313 312 312 311 311 312 312 312 316 318 319 319 317 316
303 309 308 306 307 309 309 313 310 309 310 310 310 311 311 311 311 312 313 313 312 314 315 318 316 313 314 314 313 314 314 311 314 310 310 311 312 314 312 315 318 319 318 318 316
303 309 308 304 307 308 310 311 311 309 309 310 311 311 312 312 312 312 313 312 313 313 312 312 316 312 314 314 313 313 311 313 313 313 313 310 311 312 315 314 318 320 319 318 318
302 308 305 304 308 307 311 309 308 309 309 310 311 311 312 313 312 313 313 312 312 313 312 308 309 314 315 315 314 315 314 313 312 313 316 313 311 312 319 317 320 321 319 318 324
302 306 304 304 307 304 308 306 306 309 308 309 310 312 312 312 313 314 313 312 311 312 309 309 311 317 314 313 313 313 314 313 315 311 315 322 318 317 320 321 321 321 317 323 331
302 303 303 304 307 307 305 305 306 308 308 309 311 311 311 312 312 312 312 312 311 311 308 310 314 318 315 315 314 316 314 313 314 315 315 317 328 330 331 328 318 320 324 334 335
302 305 303 303 303 305 305 306 307 307 307 308 309 309 311 311 310 313 312 312 310 310 312 310 313 318 317 315 314 315 314 313 314 315 315 315 315 321 332 325 327 331 334 334 331
301 303 302 305 305 304 303 304 306 307 306 306 310 311 310 311 311 312 311 311 310 311 310 310 315 316 316 317 316 316 315 316 316 315 319 317 319 320 331 333 335 333 332 331 328
302 303 302 303 303 304 304 307 306 306 305 309 310 310 309 311 311 311 311 310 311 310 310 309 316 316 318 318 317 315 315 316 317 317 318 318 319 321 332 333 332 330 328 327 325
301 301 301 303 303 304 305 305 305 305 306 306 307 308 311 311 310 309 308 308 308 310 310 311 316 318 321 319 319 320 319 319 319 317 317 320 322 331 332 331 329 327 326 323 321
Wind_Speed
19 19 19 19 20 21 22 22 22 22 19 17 16 16 15 14 16 17 17 8 3 4 7 7 6 9 7 9 10 9 8 14 17 14 7 4 11 7 6 17 8 8 17 1 7
20 21 21 21 22 24 24 25 24 22 17 16 16 15 16 16 17 3 0 8 6 3 3 3 3 5 6 6 9 11 12 18 6 12 9 8 16 8 5 8 14 12 15 8 14
22 23 24 25 26 27 27 26 23 19 16 15 14 17 17 17 8 3 10 5 4 6 7 6 4 0 6 6 9 9 16 11 7 1 6 15 15 12 13 19 16 17 13 8 13
24 26 26 26 27 28 26 22 18 14 14 14 15 17 15 11 3 2 5 9 11 10 6 5 3 4 4 8 13 11 12 17 16 15 11 10 7 9 16 25 11 15 10 8 10
27 29 29 29 28 25 20 17 15 14 14 15 16 15 13 6 1 2 8 9 8 9 7 5 5 4 5 4 6 13 18 14 11 12 14 17 19 18 24 18 20 26 21 17 14
30 32 32 29 23 18 16 16 16 16 16 15 14 12 9 3 3 3 2 3 4 3 3 4 3 5 4 5 6 3 6 11 15 24 18 15 23 19 18 18 28 26 28 21 19
33 34 31 24 17 14 15 18 16 18 14 12 13 9 2 4 5 3 2 2 4 5 3 2 5 6 0 5 7 9 12 9 14 16 14 17 23 32 24 25 20 16 20 18 18
35 32 26 19 16 13 17 21 17 18 10 13 11 3 1 6 7 6 9 12 11 11 9 8 8 7 6 6 9 10 9 8 1 11 18 16 29 27 13 22 33 29 35 29 24
34 26 21 20 15 14 18 20 19 11 10 15 5 4 1 7 14 20 17 11 12 12 10 10 7 6 4 5 6 5 9 8 6 5 7 20 27 7 9 23 20 20 28 26 23
31 21 21 16 15 15 16 19 23 9 14 6 4 3 2 9 20 23 14 12 8 9 5 7 7 7 5 8 8 7 8 8 11 4 13 19 26 16 24 16 16 16 22 22 22
30 19 18 15 14 15 15 14 14 5 21 8 10 7 15 14 18 22 15 11 8 4 7 7 9 14 19 17 17 14 16 16 12 10 11 19 16 17 17 26 22 22 21 19 18
30 16 14 16 10 15 15 10 9 11 11 11 4 10 8 11 25 16 10 4 5 8 2 6 17 20 20 18 19 20 21 19 17 15 14 22 22 20 17 24 21 22 25 22 13
32 18 13 17 11 15 15 13 15 12 5 8 6 4 6 19 18 15 3 7 8 12 11 15 19 9 12 17 19 21 21 16 20 11 17 18 23 26 24 28 25 26 28 24 19
33 21 10 16 10 17 12 18 16 6 3 5 3 1 7 25 4 18 9 6 5 12 13 15 14 18 19 22 18 23 18 18 17 9 10 10 13 18 15 26 22 27 27 28 20
33 17 9 14 15 15 19 18 7 3 4 13 3 6 28 8 22 4 13 8 15 18 11 11 10 7 13 20 18 22 16 15 16 16 14 17 10 19 17 17 23 24 29 29 22
30 10 10 14 16 19 20 12 1 2 3 7 6 20 21 21 5 9 14 8 11 9 13 25 23 14 20 17 13 4 9 8 10 10 10 25 17 15 17 24 20 24 28 30 22
26 5 9 14 16 19 19 6 2 4 7 7 12 19 21 10 11 12 16 13 8 5 5 8 14 14 10 11 6 11 9 5 7 7 14 13 16 20 19 22 23 25 27 27 21
21 3 9 15 15 17 17 2 4 2 8 13 15 22 5 11 11 11 13 13 6 10 4 4 6 10 11 12 8 13 17 6 8 9 12 13 15 18 30 23 14 20 22 19 20
18 5 7 17 16 14 6 5 2 6 10 12 18 5 8 13 6 11 8 9 4 9 3 4 7 6 12 12 8 3 11 10 4 11 9 15 17 16 25 21 21 18 21 24 24
19 2 10 18 14 10 4 1 3 3 10 7 5 2 17 20 13 12 5 5 4 5 8 2 8 8 3 8 10 4 6 6 5 5 10 14 22 13 22 25 19 18 21 24 23
15 2 13 18 8 8 3 3 5 9 12 3 7 9 13 10 10 5 7 11 8 7 7 5 6 2 5 8 9 5 4 4 5 8 6 10 15 19 14 24 22 21 29 29 27
12 2 15 17 5 3 2 6 6 7 3 5 5 8 9 14 6 7 7 7 16 12 4 7 4 5 7 5 3 12 7 15 9 9 8 7 4 13 16 15 21 19 27 30 30
15 5 8 13 4 4 6 4 5 5 8 4 6 5 9 6 8 7 10 9 20 8 5 4 3 2 4 5 1 5 14 15 12 4 11 6 2 4 6 10 14 21 33 35 35
10 5 6 10 7 2 5 4 7 10 9 6 10 11 10 16 11 11 18 9 26 21 14 7 4 5 6 4 1 5 10 14 14 6 6 11 20 22 9 15 19 28 37 38 37
10 3 3 5 2 6 3 3 6 7 5 8 5 15 19 9 18 5 21 14 12 7 6 3 4 3 12 14 13 11 8 9 12 14 6 9 14 17 11 21 23 33 39 37 35
7 6 5 6 8 7 1 2 5 7 4 7 7 21 21 10 12 24 24 16 4 5 5 3 4 6 4 5 7 8 10 11 13 10 12 11 17 17 18 27 24 33 37 35 36
12 7 3 5 3 3 2 2 7 12 9 19 19 17 17 19 33 38 27 14 8 6 6 4 5 4 4 1 5 6 3 9 9 8 11 6 7 18 16 18 19 29 33 38 39
Wind_Direction
2 359 356 352 347 341 335 330 328 325 321 322 328 332 337 330 318 311 301 288 253 271 287 278 263 234 216 197 191 186 231 239 234 221 222 185 213 201 225 226 213 215 232 182 299
359 355 353 350 345 341 336 331 330 330 328 334 338 344 343 338 329 2 333 121 101 72 22 358 49 221 213 207 201 205 226 235 228 240 243 244 239 213 247 222 231 243 243 287 248
358 355 353 350 345 341 335 330 332 335 337 339 340 343 340 342 346 111 145 135 90 8 334 332 304 255 219 204 210 222 239 232 185 279 276 272 255 241 250 250 233 236 244 335 202
357 353 351 348 344 340 335 336 342 345 346 340 337 335 339 345 8 238 247 272 284 321 314 293 260 184 206 218 225 251 248 249 261 281 300 288 295 283 245 246 248 248 261 297 222
355 351 349 346 344 346 347 354 358 353 348 339 332 336 348 346 42 240 320 312 306 295 278 245 221 203 236 236 234 241 250 247 258 280 284 289 272 270 260 251 253 259 268 271 256
354 349 345 344 351 359 0 4 354 345 339 336 338 341 352 22 24 323 344 332 322 282 265 245 219 246 267 250 246 307 296 274 264 257 261 276 279 276 251 252 254 255 263 265 253
353 348 345 352 6 6 6 358 351 342 339 344 340 338 47 63 12 333 332 341 264 247 240 282 229 215 101 278 266 284 283 277 249 242 242 250 273 249 259 253 260 246 246 246 256
355 352 358 10 11 12 1 355 347 342 347 341 338 359 187 19 8 318 292 304 289 253 255 293 240 220 224 258 266 276 280 276 329 228 224 202 254 255 249 236 249 252 256 255 258
358 2 10 8 18 10 1 358 351 349 341 335 351 342 239 8 356 339 321 299 293 272 261 268 224 231 202 248 277 245 261 250 276 265 230 210 245 276 261 249 261 256 258 256 254
359 3 3 13 16 8 3 359 352 330 342 346 359 322 211 326 342 345 337 322 275 263 262 202 208 222 218 222 252 250 254 255 260 236 228 234 248 254 275 285 287 291 267 256 244
356 357 0 3 10 6 3 1 360 335 322 276 293 268 298 321 331 323 317 305 268 218 238 208 226 237 244 236 249 261 262 262 261 272 285 260 273 272 274 274 268 267 267 263 243
352 348 359 354 341 356 351 7 349 314 300 309 286 286 329 337 318 318 313 257 212 258 230 243 246 254 256 253 248 252 257 259 263 250 257 264 270 269 261 264 263 266 261 259 242
349 340 349 350 346 345 346 343 334 326 286 301 308 293 341 333 308 308 239 293 240 265 257 262 265 281 243 248 245 244 249 253 253 262 259 266 270 265 254 258 257 254 253 254 234
348 342 327 349 353 338 338 332 323 313 303 342 11 263 331 334 267 324 312 274 266 280 285 275 287 249 252 251 244 257 241 239 242 243 254 206 265 258 249 245 240 243 242 242 228
349 346 340 352 351 350 332 331 329 154 313 329 308 302 329 332 294 281 319 276 278 279 263 251 262 234 234 248 252 255 247 234 237 239 263 249 256 263 242 240 227 229 233 237 227
351 351 349 354 354 350 344 338 335 260 339 336 316 326 331 332 268 271 301 271 282 275 252 260 257 268 254 258 256 250 215 236 222 233 242 241 224 251 233 220 225 222 222 230 215
353 345 2 357 350 346 342 337 331 31 334 317 319 325 321 314 314 316 310 295 274 299 272 301 256 239 241 232 227 186 155 179 197 198 240 234 233 235 208 226 224 217 212 216 209
353 245 3 360 347 336 343 1 16 350 310 306 317 316 302 333 324 312 302 301 252 234 276 287 301 189 185 210 203 199 193 190 212 214 247 219 226 231 232 242 243 241 214 201 192
1 258 342 351 348 340 353 51 322 332 325 316 320 314 312 322 316 313 295 293 266 198 242 280 249 239 215 214 192 183 208 207 316 247 256 223 232 250 230 228 236 240 197 188 186
357 41 358 348 350 347 59 304 269 246 323 311 307 328 316 318 320 330 308 270 277 221 208 289 280 252 304 195 186 203 196 170 217 241 233 231 228 232 204 214 221 212 197 184 178
357 4 352 351 3 48 55 293 288 295 323 295 290 288 300 308 289 288 265 283 278 279 249 206 220 307 173 204 198 187 182 191 250 238 267 275 225 210 219 200 204 201 185 173 168
2 347 349 357 35 35 13 313 295 296 315 287 275 276 279 309 272 275 251 264 290 320 254 206 271 253 238 143 131 202 200 205 220 226 234 282 204 191 208 195 195 195 168 162 153
345 316 351 16 44 356 328 298 271 309 319 308 282 283 283 294 307 257 289 278 316 313 256 186 239 279 201 215 166 204 216 220 236 271 283 341 82 342 200 162 166 160 151 146 140
355 346 358 45 90 31 339 294 314 314 295 298 281 290 302 306 291 285 287 307 311 303 298 202 242 268 274 312 148 226 208 219 226 267 311 264 288 283 169 151 145 149 139 135 132
14 46 5 325 23 338 289 272 302 331 300 307 272 312 325 301 307 269 309 315 306 296 316 268 269 261 279 262 255 244 203 194 214 228 251 307 287 297 165 144 139 139 129 129 126
13 355 336 284 292 311 240 268 306 319 278 291 285 318 313 291 303 308 310 315 282 317 313 293 297 307 297 14 206 201 185 199 251 261 239 253 275 267 144 120 129 130 130 128 127
354 340 313 279 297 295 255 297 293 321 274 251 289 307 309 321 316 298 291 267 252 308 330 299 311 325 14 324 130 130 39 323 315 306 294 241 239 125 113 118 118 124 128 127 126